{"data":{"norad_id":53604,"intl_designator":"2022-104S","name":"STARLINK-4690","alt_names":[],"object_type":"PAYLOAD","status":"ACTIVE","operator":null,"country":"US","launch_date":"2022-08-28","launch_site_code":"AFETR","launch_vehicle":null,"mission":null,"orbit_class":"UNKNOWN","rcs_meters":null,"size_class":null,"mass_kg":null,"dimensions":null,"purposes":["comms"],"wikipedia_slug":null,"has_3d_model":false,"image_url":null,"decayed_at":null,"tle_current":{"epoch":"2026-09-20T18:30:04.031136Z","epoch_age_seconds":54777,"freshness":"FRESH","line1":"1 53604U 22104S   26263.77087999  .00000432  00000+0  23928-4 0  9998","line2":"2 53604  53.1600  72.3375 0001295  89.7769 270.3382 15.34394300225281","mean_motion":15.343943,"eccentricity":0.0001295,"inclination_deg":53.16,"raan_deg":72.3375,"arg_perigee_deg":89.7769,"mean_anomaly_deg":270.3382,"bstar":2.3928e-5,"rev_number":22528,"period_min":93.848106708947,"perigee_km":461.83429085572,"apogee_km":463.60607286582,"semimajor_km":6840.8571818608,"source":"CELESTRAK","updated_at":"2026-09-21T09:00:32.938062Z"}}}